Location: Arrington
(35.8681°N, 86.7092°W)
Time: 11:01:17
(UTC+00:00)

Cosmos 1833 - Pass Details

Date: 23 November 2019
Orbit: 835 x 864 km, 70.9° (Epoch: 09 December)

Event Time Altitude Azimuth Distance (km) Brightness Sun altitude
Exits shadow 10:18:51 44° 201° (SSW) 1,136 4.7 -26.5°
Maximum altitude 10:20:43 90° 271° (W) 840 4.0 -26.1°
Drops below altitude 10° 10:26:22 10° 22° (NNE) 2,454 6.7 -25.0°
Sets 10:28:49 0° 22° (NNE) 3,395 7.5 -24.5°
